Weather History for Quillayute, WA

Change the Weather History Date:

Tuesday, July 15, 2014

  Actual Average Record
Temperature  
Mean Temperature 62 °F 59 °F  
Max Temperature 71 °F 68 °F 89 °F (1970)
Min Temperature 52 °F 51 °F 40 °F (1987)
Degree Days  
Heating Degree Days 3 6  
Month to date heating degree days 60 104  
Since 1 June heating degree days 309 398  
Since 1 July heating degree days 60 104  
Cooling Degree Days 0 0  
Month to date cooling degree days 6 0  
Year to date cooling degree days 10 4  
Since 1 June cooling degree days 6 3  
Growing Degree Days 12 (Base 50)    
Moisture  
Dew Point 54 °F    
Average Humidity 83    
Maximum Humidity 100    
Minimum Humidity 66    
Precipitation  
Precipitation 0.00 in 0.06 in 0.66 in (1974)
Month to date precipitation 0.25 1.09  
Year to date precipitation 54.59 53.34  
Sea Level Pressure  
Sea Level Pressure 30.10 in    
Wind  
Wind Speed 5 mph (WNW)    
Max Wind Speed 13 mph    
Max Gust Speed 16 mph    
Visibility 5 miles    
Events Fog    
T = Trace of Precipitation, MM = Missing Value Source: NWS Daily Summary

Daily Weather History Graph

Daily Weather History Graph

Search for Another Location

Airport:

Trip Planner

Search our weather history database for the weather conditions in past years. The results will help you decide how hot, cold, wet, or windy it might be!

Date:

Astronomy

Jul. 15, 2014 Rise Set
Actual Time 5:34 AM PDT 9:13 PM PDT
Civil Twilight 4:55 AM PDT 9:52 PM PDT
Nautical Twilight 4:02 AM PDT 10:44 PM PDT
Astronomical Twilight 2:49 AM PDT 11:57 PM PDT
Moon 11:00 PM PDT (7/15) 9:57 AM PDT (7/15)
Length of Visible Light 16h 56m
Length of Day
15h 38m
Waning Gibbous, 84% of the Moon is Illuminated
Jul 15
Waning Gibbous
Jul 18
Last Quarter
Jul 26
New
Aug 3
First Quarter
Aug 10
Full

Hourly Weather History & Observations

Time (PDT) Temp. Dew Point Humidity Pressure Visibility Wind Dir Wind Speed Gust Speed Precip Events Conditions
12:53 AM 54.0 °F 54.0 °F 100% 30.15 in 5.0 mi WNW 3.5 mph - N/A   Overcast
1:53 AM 54.0 °F 54.0 °F 100% 30.14 in 4.0 mi WNW 4.6 mph - N/A   Overcast
2:51 AM 53.6 °F 53.6 °F 100% 30.13 in 4.0 mi Calm Calm - N/A   Overcast
2:53 AM 54.0 °F 54.0 °F 100% 30.14 in 4.0 mi Calm Calm - N/A   Overcast
3:09 AM 54.0 °F 54.0 °F 100% 30.13 in 4.0 mi Calm Calm - N/A   Overcast
3:53 AM 54.0 °F 54.0 °F 100% 30.13 in 5.0 mi WNW 3.5 mph - N/A   Overcast
4:53 AM 54.0 °F 54.0 °F 100% 30.13 in 4.0 mi WNW 4.6 mph - N/A   Overcast
5:53 AM 54.0 °F 54.0 °F 100% 30.13 in 5.0 mi Calm Calm - N/A   Overcast
6:53 AM 54.0 °F 53.1 °F 97% 30.13 in 6.0 mi Calm Calm - N/A   Overcast
7:00 AM 54.0 °F 53.1 °F 97% 30.13 in 6.0 mi Calm Calm - N/A   Overcast
7:25 AM 54.0 °F 53.1 °F 97% 30.12 in 5.0 mi Calm Calm - N/A   Overcast
7:53 AM 55.0 °F 54.0 °F 96% 30.13 in 5.0 mi Calm Calm - N/A   Overcast
8:53 AM 55.9 °F 54.0 °F 93% 30.14 in 4.0 mi WNW 3.5 mph - N/A   Overcast
10:13 AM 57.0 °F 55.0 °F 93% 30.13 in 6.0 mi Variable 3.5 mph - N/A   Overcast
10:53 AM 59.0 °F 55.0 °F 87% 30.13 in 7.0 mi Variable 4.6 mph - N/A   Overcast
11:53 AM 60.1 °F 55.9 °F 86% 30.13 in 7.0 mi WSW 5.8 mph - N/A   Overcast
12:53 PM 62.1 °F 55.0 °F 78% 30.12 in 7.0 mi WSW 6.9 mph - N/A   Mostly Cloudy
1:03 PM 63.0 °F 55.9 °F 78% 30.12 in 7.0 mi SW 8.1 mph - N/A   Scattered Clouds
1:53 PM 64.9 °F 55.9 °F 73% 30.12 in 7.0 mi SW 9.2 mph - N/A   Clear
2:53 PM 66.0 °F 55.9 °F 70% 30.11 in 6.0 mi West 10.4 mph - N/A   Haze
3:53 PM 66.9 °F 57.0 °F 70% 30.10 in 6.0 mi WSW 8.1 mph - N/A   Haze
4:53 PM 70.0 °F 57.9 °F 65% 30.08 in 6.0 mi NW 8.1 mph - N/A   Haze
5:53 PM 66.9 °F 55.9 °F 68% 30.07 in 7.0 mi WNW 8.1 mph - N/A   Clear
6:53 PM 63.0 °F 55.0 °F 75% 30.06 in 7.0 mi WNW 8.1 mph - N/A   Clear
7:53 PM 55.0 °F 53.1 °F 93% 30.06 in 7.0 mi WNW 5.8 mph - N/A   Clear
8:04 PM 55.0 °F 54.0 °F 96% 30.06 in 7.0 mi WNW 6.9 mph - N/A   Scattered Clouds
8:14 PM 55.0 °F 54.0 °F 96% 30.06 in 7.0 mi WNW 6.9 mph - N/A   Mostly Cloudy
8:53 PM 55.0 °F 54.0 °F 96% 30.06 in 7.0 mi NNW 4.6 mph - N/A   Overcast
9:09 PM 54.0 °F 54.0 °F 100% 30.05 in 5.0 mi North 4.6 mph - N/A   Overcast
9:53 PM 54.0 °F 53.1 °F 97% 30.06 in 5.0 mi WNW 5.8 mph - N/A   Overcast
10:28 PM 53.1 °F 53.1 °F 100% 30.05 in 2.0 mi WNW 4.6 mph - N/A   Overcast
10:42 PM 53.1 °F 53.1 °F 100% 30.05 in 1.2 mi WNW 3.5 mph - N/A   Overcast
10:53 PM 53.1 °F 53.1 °F 100% 30.05 in 1.0 mi WNW 3.5 mph - N/A   Overcast
11:09 PM 53.1 °F 53.1 °F 100% 30.04 in 0.8 mi North 3.5 mph - N/A   Mist
11:53 PM 53.1 °F 53.1 °F 100% 30.04 in 0.5 mi Calm Calm - N/A Fog Fog